Flag for Germany Weather past 2 weeks in Bayreuth, Bavaria, Germany

Now
50 °F

Fog.


Feels Like: 50 °F
Forecast: 48 / 71 °F
Wind: 1 mph from East

Location: Grafenwoehr

Current Time: Sep 17, 2014 at 4:37:26 AM

Latest Report: Sep 17, 2014 at 3:58 AM


Visibility: 5 mi

Pressure: 29.98 "Hg

Humidity: 100%

Dew point: 50 °F

Location of BayreuthLocation

Historic Weather in Bayreuth — Graph

°F

Bayreuth temperature yesterday

Maximum temperature yesterday: 73 °F (at 2:58 PM)
Minimum temperature yesterday: 46 °F (at 6:58 AM)
Average temperature yesterday: 60 °F

Past Weeks' High & Low Weather Summary

 TemperatureHumidityPressure
High77 °F (Sep 5, 3:58 PM)100% (Sep 2, 2:58 AM)30.17 "Hg (Sep 2, 2:58 AM)
Low41 °F (Sep 11, 6:58 AM)35% (Sep 9, 12:58 PM)29.87 "Hg (Sep 6, 4:58 PM)
Average60 °F84%30.02 "Hg
* Reported Sep 2 2:58 AM — Sep 17 2:58 AM, Bayreuth, Weather by CustomWeather, © 2014

Note: Actual official high and low records may vary slightly from our data, if they occured in-between our weather recording intervals... More about our weather records

Advertising

Bayreuth weather history for previous 24 hours

 ConditionsComfort  
Time TempWeatherWind HumidityBarometerVisibility
2:58 AM
Sep 17
50 °FClear.No wind100%29.99 "HgN/A
1:58 AM52 °FClear.1 mph100%29.99 "HgN/A
12:58 AM54 °FClear.No wind94%29.99 "HgN/A
11:58 PM
Sep 16
55 °FPassing clouds.No wind94%30.00 "HgN/A
10:58 PM55 °FPassing clouds.No wind88%30.01 "HgN/A
9:58 PM57 °FPassing clouds.No wind82%30.01 "HgN/A
8:58 PM59 °FClear.2 mph82%30.01 "HgN/A
7:58 PM63 °FSunny.1 mph73%30.01 "HgN/A
6:58 PM66 °FSunny.2 mph64%30.00 "HgN/A
5:58 PM70 °FScattered clouds.No wind60%29.99 "HgN/A
4:58 PM73 °FScattered clouds.5 mph53%29.98 "HgN/A
3:58 PM72 °FPassing clouds.3 mph53%29.99 "HgN/A
2:58 PM73 °FScattered clouds.2 mph50%30.00 "HgN/A
1:58 PM70 °FPartly sunny.2 mph60%30.01 "HgN/A
12:58 PM70 °FScattered clouds.5 mph57%30.03 "HgN/A
11:58 AM70 °FPassing clouds.2 mph57%30.03 "HgN/A
10:58 AM66 °FSunny.1 mph64%30.05 "HgN/A
9:58 AM64 °FScattered clouds.2 mph73%30.05 "HgN/A
8:58 AM59 °FScattered clouds.No wind88%30.04 "HgN/A
7:58 AM50 °FOvercast.No wind94%30.05 "HgN/A
6:58 AM46 °FPassing clouds.No wind100%30.05 "HgN/A
5:58 AM48 °FPassing clouds.No wind100%30.03 "HgN/A
4:58 AM48 °FPassing clouds.No wind100%30.03 "HgN/A
Weather by CustomWeather, © 2014

See weather overviewHow to use our weather pages